"read_dt","SO2 (ppb)","flags","PMT voltage (V)","lamp voltage (V)","lamp intensity (Hz)","internal temp (C)","react chamber temp (C)","sample flow (l/min)","pres (mmHg)","SO2 bkg (ppb)","SO2 coefficient"
2018-09-15 00:00:00,-2.035E-01,4C000000*,-703.0,965.001,90,20.5,44.8,0.407,739.6,2.2,1.050*
2018-09-15 00:01:00,-3.181E-01,4C000000*,-703.0,965.405,90,20.5,44.8,0.406,739.6,2.2,1.050*
2018-09-15 00:02:00,-2.985E-01,4C000000*,-703.4,963.384,88,20.5,44.9,0.407,739.6,2.2,1.050*
2018-09-15 00:03:00,-3.058E-01,4C000000*,-703.4,963.788,91,20.6,45.0,0.406,739.6,2.2,1.050*
2018-09-15 00:04:00,-2.508E-01,4C000000*,-703.4,965.001,88,20.5,44.8,0.406,739.3,2.2,1.050*
2018-09-15 00:05:00,-3.203E-01,4C000000*,-703.0,963.788,90,20.5,44.7,0.406,739.6,2.2,1.050*
2018-09-15 00:06:00,-4.268E-01,4C000000*,-703.4,962.979,90,20.6,44.8,0.406,739.6,2.2,1.050*
2018-09-15 00:07:00,-2.459E-01,4C000000*,-703.4,964.192,90,20.5,44.8,0.406,739.6,2.2,1.050*
2018-09-15 00:08:00,-3.303E-01,4C000000*,-703.0,963.788,90,20.6,45.0,0.407,739.6,2.2,1.050*
2018-09-15 00:09:00,-3.643E-01,4C000000*,-703.4,963.384,90,20.6,45.1,0.406,739.6,2.2,1.050*
2018-09-15 00:10:00,-2.667E-01,4C000000*,-703.0,963.788,90,20.6,44.7,0.406,739.3,2.2,1.050*
2018-09-15 00:11:00,-2.236E-01,4C000000*,-703.0,963.384,90,20.6,44.8,0.406,739.6,2.2,1.050*
2018-09-15 00:12:00,-3.004E-01,4C000000*,-703.4,963.788,91,20.6,44.9,0.407,739.6,2.2,1.050*
2018-09-15 00:13:00,-2.680E-01,4C000000*,-703.0,964.597,90,20.6,45.0,0.406,739.3,2.2,1.050*
2018-09-15 00:14:00,-3.142E-01,4C000000*,-703.4,963.788,90,20.5,45.0,0.406,739.3,2.2,1.050*
2018-09-15 00:15:00,-2.271E-01,4C000000*,-703.4,964.192,89,20.5,44.6,0.407,739.6,2.2,1.050*
2018-09-15 00:16:00,-3.249E-01,4C000000*,-702.6,964.597,90,20.5,44.7,0.406,739.3,2.2,1.050*
2018-09-15 00:17:00,-2.378E-01,4C000000*,-703.4,962.979,90,20.5,44.8,0.407,739.6,2.2,1.050*
2018-09-15 00:18:00,-2.873E-01,4C000000*,-703.4,964.597,91,20.5,44.9,0.406,739.3,2.2,1.050*
2018-09-15 00:19:00,-2.027E-01,4C000000*,-703.4,963.788,91,20.5,45.0,0.407,739.3,2.2,1.050*
2018-09-15 00:20:00,-3.391E-01,4C000000*,-703.0,963.788,90,20.5,44.9,0.406,739.3,2.2,1.050*
2018-09-15 00:21:00,-2.658E-01,4C000000*,-702.6,965.405,89,20.6,44.7,0.406,739.3,2.2,1.050*
2018-09-15 00:22:00,-2.282E-01,4C000000*,-703.0,965.001,90,20.5,44.8,0.406,739.3,2.2,1.050*
2018-09-15 00:23:00,-1.826E-02,4C000000*,-703.4,963.384,90,20.5,44.9,0.406,739.3,2.2,1.050*
2018-09-15 00:24:00,1.482E-01,4C000000*,-703.4,965.405,89,20.6,45.0,0.406,739.3,2.2,1.050*
2018-09-15 00:25:00,8.194E-01,4C000000*,-703.0,964.192,90,20.5,44.8,0.406,739.3,2.2,1.050*
2018-09-15 00:26:00,9.349E-01,4C000000*,-703.4,965.001,91,20.6,44.9,0.406,739.3,2.2,1.050*
2018-09-15 00:27:00,1.084E+00,4C000000*,-703.0,965.001,91,20.5,44.9,0.407,739.3,2.2,1.050*
2018-09-15 00:28:00,1.487E+00,4C000000*,-703.4,965.001,90,20.5,45.0,0.406,739.3,2.2,1.050*
2018-09-15 00:29:00,1.637E+00,4C000000*,-703.0,963.384,89,20.5,44.8,0.407,739.0,2.2,1.050*
2018-09-15 00:30:00,1.576E+00,4C000000*,-703.4,964.597,91,20.5,44.8,0.406,739.0,2.2,1.050*
2018-09-15 00:31:00,1.097E+00,4C000000*,-703.0,967.022,90,20.4,44.9,0.406,739.3,2.2,1.050*
2018-09-15 00:32:00,7.916E-01,4C000000*,-703.4,965.001,90,20.4,45.0,0.406,739.0,2.2,1.050*
2018-09-15 00:33:00,6.810E-01,4C000000*,-703.4,966.214,91,20.5,45.2,0.406,739.0,2.2,1.050*
2018-09-15 00:34:00,5.834E-01,4C000000*,-703.0,966.214,89,20.6,44.8,0.406,739.3,2.2,1.050*
2018-09-15 00:35:00,3.410E-01,4C000000*,-703.0,964.597,90,20.5,44.9,0.407,739.3,2.2,1.050*
2018-09-15 00:36:00,1.813E-01,4C000000*,-703.0,964.597,90,20.5,44.9,0.406,739.3,2.2,1.050*
2018-09-15 00:37:00,1.807E-01,4C000000*,-703.4,964.597,88,20.4,45.1,0.406,739.0,2.2,1.050*
2018-09-15 00:38:00,-1.067E-01,4C000000*,-703.0,965.405,89,20.5,44.8,0.406,739.3,2.2,1.050*
2018-09-15 00:39:00,-3.197E-01,4C000000*,-703.0,964.597,90,20.5,44.8,0.406,739.3,2.2,1.050*
2018-09-15 00:40:00,-2.037E-01,4C000000*,-703.0,964.192,91,20.4,44.9,0.406,739.3,2.2,1.050*
2018-09-15 00:41:00,-2.141E-01,4C000000*,-703.4,964.597,91,20.5,45.0,0.406,739.0,2.2,1.050*
2018-09-15 00:42:00,-2.422E-01,4C000000*,-703.4,962.979,89,20.5,44.8,0.406,739.3,2.2,1.050*
2018-09-15 00:43:00,-2.234E-01,4C000000*,-703.0,964.597,90,20.5,44.8,0.406,739.3,2.2,1.050*
2018-09-15 00:44:00,-2.898E-01,4C000000*,-703.0,965.001,90,20.6,44.9,0.406,739.0,2.2,1.050*
2018-09-15 00:45:00,-1.869E-01,4C000000*,-703.0,965.001,90,20.5,45.1,0.407,739.0,2.2,1.050*
2018-09-15 00:46:00,-3.825E-01,4C000000*,-703.4,965.001,88,20.4,45.0,0.406,739.3,2.2,1.050*
2018-09-15 00:47:00,-2.993E-01,4C000000*,-703.0,964.597,89,20.4,44.8,0.406,739.0,2.2,1.050*
2018-09-15 00:48:00,-3.524E-01,4C000000*,-703.4,964.192,90,20.4,44.9,0.406,739.3,2.2,1.050*
2018-09-15 00:49:00,-2.532E-01,4C000000*,-703.0,963.788,90,20.4,45.0,0.407,739.0,2.2,1.050*
2018-09-15 00:50:00,-2.225E-01,4C000000*,-703.4,965.001,90,20.4,45.0,0.406,739.0,2.2,1.050*
2018-09-15 00:51:00,-2.805E-01,4C000000*,-703.0,965.405,89,20.3,44.8,0.407,739.0,2.2,1.050*
2018-09-15 00:52:00,-2.962E-01,4C000000*,-703.0,965.405,90,20.3,44.8,0.407,739.0,2.2,1.050*
2018-09-15 00:53:00,-1.886E-01,4C000000*,-703.0,965.809,90,20.3,44.9,0.407,739.0,2.2,1.050*
2018-09-15 00:54:00,-2.495E-01,4C000000*,-703.4,964.597,88,20.4,45.0,0.406,739.0,2.2,1.050*
2018-09-15 00:55:00,-3.072E-01,4C000000*,-703.4,964.597,90,20.3,45.1,0.406,739.0,2.2,1.050*
2018-09-15 00:56:00,-2.228E-01,4C000000*,-703.4,964.597,89,20.3,44.8,0.406,739.0,2.2,1.050*
2018-09-15 00:57:00,-2.541E-01,4C000000*,-703.4,963.788,90,20.4,44.9,0.406,739.0,2.2,1.050*
2018-09-15 00:58:00,-2.283E-01,4C000000*,-703.0,965.809,90,20.4,45.0,0.406,739.0,2.2,1.050*
2018-09-15 00:59:00,-2.539E-01,4C000000*,-703.0,964.597,89,20.4,45.1,0.406,739.0,2.2,1.050*
2018-09-15 01:00:00,-2.193E-01,4C000000*,-703.0,963.384,89,20.3,44.7,0.406,739.0,2.2,1.050*
2018-09-15 01:01:00,-2.331E-01,4C000000*,-703.4,965.809,91,20.2,44.7,0.406,739.0,2.2,1.050*
2018-09-15 01:02:00,-2.541E-01,4C000000*,-703.0,963.788,90,20.3,44.8,0.406,739.0,2.2,1.050*
2018-09-15 01:03:00,-2.506E-01,4C000000*,-703.4,964.597,91,20.3,44.9,0.406,739.0,2.2,1.050*
2018-09-15 01:04:00,-2.079E-01,4C000000*,-703.0,965.809,90,20.3,45.0,0.406,739.0,2.2,1.050*
2018-09-15 01:05:00,-2.213E-01,4C000000*,-703.4,964.192,89,20.2,45.1,0.406,739.0,2.2,1.050*
2018-09-15 01:06:00,-9.682E-02,4C000000*,-703.0,963.384,90,20.2,44.8,0.406,739.0,2.2,1.050*
2018-09-15 01:07:00,1.475E-01,4C000000*,-703.0,963.384,91,20.3,44.8,0.406,739.0,2.2,1.050*
2018-09-15 01:08:00,4.053E-02,4C000000*,-703.0,963.384,90,20.2,44.9,0.406,739.0,2.2,1.050*
2018-09-15 01:09:00,-8.215E-02,4C000000*,-703.0,965.001,89,20.2,45.0,0.406,739.0,2.2,1.050*
2018-09-15 01:10:00,-1.431E-01,4C000000*,-703.4,964.597,90,20.2,45.0,0.406,739.0,2.2,1.050*
2018-09-15 01:11:00,-3.342E-01,4C000000*,-703.4,964.597,89,20.1,44.7,0.406,739.0,2.2,1.050*
2018-09-15 01:12:00,-2.926E-01,4C000000*,-703.4,965.001,89,20.2,44.8,0.406,739.0,2.2,1.050*
2018-09-15 01:13:00,-2.683E-01,4C000000*,-703.0,963.788,88,20.2,44.8,0.406,739.0,2.2,1.050*
2018-09-15 01:14:00,-1.911E-01,4C000000*,-703.4,965.001,90,20.2,44.9,0.406,739.0,2.2,1.050*
2018-09-15 01:15:00,-1.129E-01,4C000000*,-703.0,962.979,89,20.2,45.0,0.406,739.0,2.2,1.050*
2018-09-15 01:16:00,-1.831E-01,4C000000*,-703.0,964.597,90,20.1,44.9,0.406,738.7,2.2,1.050*
2018-09-15 01:17:00,-2.107E-01,4C000000*,-703.4,965.405,90,20.1,44.6,0.406,739.0,2.2,1.050*
2018-09-15 01:18:00,-2.924E-01,4C000000*,-703.4,964.192,92,20.2,44.7,0.406,739.0,2.2,1.050*
2018-09-15 01:19:00,-2.556E-01,4C000000*,-703.4,964.192,91,20.2,44.8,0.406,739.0,2.2,1.050*
2018-09-15 01:20:00,-2.049E-01,4C000000*,-703.0,964.597,89,20.2,44.9,0.406,738.7,2.2,1.050*
2018-09-15 01:21:00,-3.054E-01,4C000000*,-703.4,965.809,90,20.2,45.0,0.406,738.7,2.2,1.050*
2018-09-15 01:22:00,-2.915E-01,4C000000*,-703.4,963.384,89,20.2,45.0,0.406,739.0,2.2,1.050*
2018-09-15 01:23:00,-2.641E-01,4C000000*,-703.4,965.001,90,20.2,44.7,0.406,739.0,2.2,1.050*
2018-09-15 01:24:00,-2.965E-01,4C000000*,-703.0,964.192,88,20.2,44.8,0.406,739.0,2.2,1.050*
2018-09-15 01:25:00,-2.674E-01,4C000000*,-703.0,963.788,90,20.3,44.9,0.406,739.0,2.2,1.050*
2018-09-15 01:26:00,-2.543E-01,4C000000*,-703.4,965.001,91,20.3,45.0,0.406,739.0,2.2,1.050*
2018-09-15 01:27:00,-3.036E-01,4C000000*,-703.0,963.788,90,20.3,45.1,0.406,738.7,2.2,1.050*
2018-09-15 01:28:00,-2.344E-01,4C000000*,-702.6,963.384,91,20.2,44.7,0.406,739.0,2.2,1.050*
2018-09-15 01:29:00,-3.142E-01,4C000000*,-703.4,965.809,91,20.3,44.7,0.406,738.7,2.2,1.050*
2018-09-15 01:30:00,-3.002E-01,4C000000*,-703.4,965.001,90,20.3,44.8,0.406,739.0,2.2,1.050*
2018-09-15 01:31:00,-2.358E-01,4C000000*,-703.0,964.597,90,20.3,44.9,0.406,738.7,2.2,1.050*
2018-09-15 01:32:00,-2.562E-01,4C000000*,-703.0,963.788,90,20.3,45.0,0.406,739.0,2.2,1.050*
2018-09-15 01:33:00,-2.888E-01,4C000000*,-703.4,962.979,90,20.3,45.0,0.406,738.7,2.2,1.050*
2018-09-15 01:34:00,-2.827E-01,4C000000*,-703.4,965.405,90,20.4,44.8,0.406,738.7,2.2,1.050*
2018-09-15 01:35:00,-2.191E-01,4C000000*,-703.0,963.384,89,20.3,44.8,0.406,738.7,2.2,1.050*
2018-09-15 01:36:00,-2.346E-01,4C000000*,-703.0,963.384,90,20.3,44.9,0.406,738.7,2.2,1.050*
2018-09-15 01:37:00,-2.653E-01,4C000000*,-703.0,964.192,90,20.3,45.0,0.406,738.7,2.2,1.050*
2018-09-15 01:38:00,-3.186E-01,4C000000*,-703.4,965.001,90,20.3,44.8,0.406,738.7,2.2,1.050*
2018-09-15 01:39:00,-2.486E-01,4C000000*,-703.4,963.788,90,20.4,44.7,0.406,739.0,2.2,1.050*
2018-09-15 01:40:00,-2.656E-01,4C000000*,-703.7,965.809,88,20.3,44.7,0.406,738.7,2.2,1.050*
2018-09-15 01:41:00,-2.742E-01,4C000000*,-703.0,964.192,88,20.4,44.8,0.406,738.7,2.2,1.050*
2018-09-15 01:42:00,-3.538E-01,4C000000*,-703.4,964.597,88,20.3,44.9,0.406,738.7,2.2,1.050*
2018-09-15 01:43:00,-2.743E-01,4C000000*,-703.4,964.192,88,20.3,45.0,0.406,738.7,2.2,1.050*
2018-09-15 01:44:00,-2.875E-01,4C000000*,-703.4,964.192,90,20.3,44.8,0.406,738.7,2.2,1.050*
2018-09-15 01:45:00,-2.696E-01,4C000000*,-703.0,963.788,89,20.3,44.7,0.406,738.7,2.2,1.050*
2018-09-15 01:46:00,-3.683E-01,4C000000*,-703.4,962.575,90,20.4,44.8,0.406,738.7,2.2,1.050*
2018-09-15 01:47:00,-2.697E-01,4C000000*,-703.0,965.001,89,20.4,44.9,0.406,738.7,2.2,1.050*
2018-09-15 01:48:00,-2.435E-01,4C000000*,-703.4,964.192,91,20.4,45.0,0.406,738.7,2.2,1.050*
2018-09-15 01:49:00,-2.333E-01,4C000000*,-703.4,964.192,91,20.4,45.0,0.406,738.7,2.2,1.050*
2018-09-15 01:50:00,-2.123E-01,4C000000*,-703.4,964.597,88,20.4,44.8,0.406,738.7,2.2,1.050*
2018-09-15 01:51:00,-2.962E-01,4C000000*,-703.0,963.384,90,20.4,44.9,0.406,738.7,2.2,1.050*
2018-09-15 01:52:00,-2.851E-01,4C000000*,-703.4,964.597,90,20.5,45.0,0.406,738.7,2.2,1.050*
2018-09-15 01:53:00,-3.184E-01,4C000000*,-703.0,964.192,90,20.4,45.1,0.406,738.7,2.2,1.050*
2018-09-15 01:54:00,-2.623E-01,4C000000*,-703.4,964.192,91,20.4,44.7,0.406,738.7,2.2,1.050*
2018-09-15 01:55:00,-2.600E-01,4C000000*,-703.0,964.597,91,20.5,44.8,0.406,738.7,2.2,1.050*
2018-09-15 01:56:00,-2.901E-01,4C000000*,-703.4,963.788,90,20.5,44.8,0.406,738.7,2.2,1.050*
2018-09-15 01:57:00,-2.391E-01,4C000000*,-703.4,965.405,90,20.4,45.0,0.406,738.7,2.2,1.050*
2018-09-15 01:58:00,-2.168E-01,4C000000*,-703.4,964.597,89,20.4,45.0,0.406,738.7,2.2,1.050*
2018-09-15 01:59:00,-3.517E-01,4C000000*,-703.4,964.192,90,20.4,44.7,0.406,738.7,2.2,1.050*
2018-09-15 02:00:00,-2.567E-01,4C000000*,-703.0,963.384,90,20.4,44.8,0.406,738.7,2.2,1.050*
2018-09-15 02:01:00,-2.086E-01,4C000000*,-703.4,962.979,90,20.4,45.0,0.406,738.7,2.2,1.050*
2018-09-15 02:02:00,-2.706E-01,4C000000*,-703.0,965.405,89,20.4,45.1,0.406,738.7,2.2,1.050*
2018-09-15 02:03:00,-3.173E-01,4C000000*,-703.0,963.384,90,20.4,44.7,0.406,738.7,2.2,1.050*
2018-09-15 02:04:00,-2.720E-01,4C000000*,-703.4,964.192,88,20.3,44.7,0.406,738.7,2.2,1.050*
2018-09-15 02:05:00,-1.848E-01,4C000000*,-703.0,962.979,89,20.4,44.8,0.406,738.7,2.2,1.050*
2018-09-15 02:06:00,-3.396E-01,4C000000*,-703.0,964.192,90,20.3,44.9,0.406,738.4,2.2,1.050*
2018-09-15 02:07:00,-2.837E-01,4C000000*,-703.0,962.171,90,20.3,45.0,0.406,738.7,2.2,1.050*
2018-09-15 02:08:00,-2.682E-01,4C000000*,-703.4,964.597,90,20.3,44.9,0.406,738.4,2.2,1.050*
2018-09-15 02:09:00,-2.457E-01,4C000000*,-703.0,962.979,90,20.3,44.7,0.406,738.4,2.2,1.050*
2018-09-15 02:10:00,-2.791E-01,4C000000*,-703.4,963.788,90,20.4,44.7,0.406,738.7,2.2,1.050*
2018-09-15 02:11:00,-3.000E-01,4C000000*,-703.0,963.788,89,20.3,44.8,0.406,738.7,2.2,1.050*
2018-09-15 02:12:00,-2.630E-01,4C000000*,-703.0,965.001,89,20.3,44.9,0.406,738.4,2.2,1.050*
2018-09-15 02:13:00,-3.352E-01,4C000000*,-703.4,964.192,90,20.4,45.0,0.406,738.4,2.2,1.050*
2018-09-15 02:14:00,-2.442E-01,4C000000*,-702.6,964.192,89,20.3,45.0,0.406,738.7,2.2,1.050*
2018-09-15 02:15:00,-2.443E-01,4C000000*,-703.4,965.001,90,20.3,44.8,0.406,738.7,2.2,1.050*
2018-09-15 02:16:00,-2.846E-01,4C000000*,-703.4,964.597,90,20.3,44.8,0.406,738.4,2.2,1.050*
2018-09-15 02:17:00,-2.826E-01,4C000000*,-703.4,964.597,90,20.3,44.9,0.406,738.7,2.2,1.050*
2018-09-15 02:18:00,-3.485E-01,4C000000*,-703.0,964.192,90,20.3,45.0,0.406,738.4,2.2,1.050*
2018-09-15 02:19:00,-3.080E-01,4C000000*,-703.0,964.192,89,20.3,44.9,0.406,738.4,2.2,1.050*
2018-09-15 02:20:00,-3.139E-01,4C000000*,-703.0,964.597,89,20.3,44.7,0.406,738.4,2.2,1.050*
2018-09-15 02:21:00,-3.497E-01,4C000000*,-703.0,962.979,90,20.3,44.8,0.406,738.4,2.2,1.050*
2018-09-15 02:22:00,-3.506E-01,4C000000*,-703.0,963.788,90,20.3,44.8,0.406,738.4,2.2,1.050*
2018-09-15 02:23:00,-2.726E-01,4C000000*,-703.0,962.979,88,20.3,44.9,0.406,738.7,2.2,1.050*
2018-09-15 02:24:00,-3.265E-01,4C000000*,-703.0,965.001,88,20.2,45.0,0.406,738.4,2.2,1.050*
2018-09-15 02:25:00,-3.029E-01,4C000000*,-703.7,963.384,91,20.2,44.9,0.406,738.4,2.2,1.050*
2018-09-15 02:26:00,-2.550E-01,4C000000*,-703.0,963.384,90,20.2,44.7,0.406,738.4,2.2,1.050*
2018-09-15 02:27:00,-3.027E-01,4C000000*,-703.0,964.597,90,20.2,44.8,0.406,738.4,2.2,1.050*
2018-09-15 02:28:00,-2.867E-01,4C000000*,-703.4,962.979,89,20.2,44.9,0.406,738.4,2.2,1.050*
2018-09-15 02:29:00,-2.975E-01,4C000000*,-703.0,964.597,90,20.3,44.9,0.406,738.4,2.2,1.050*
2018-09-15 02:30:00,-2.607E-01,4C000000*,-703.0,963.384,86,20.2,45.1,0.406,738.4,2.2,1.050*
2018-09-15 02:31:00,-2.753E-01,4C000000*,-703.0,964.597,90,20.2,44.8,0.406,738.4,2.2,1.050*
2018-09-15 02:32:00,-2.279E-01,4C000000*,-703.0,963.788,90,20.1,44.8,0.406,738.4,2.2,1.050*
2018-09-15 02:33:00,-2.864E-01,4C000000*,-703.0,965.001,90,20.1,44.9,0.406,738.4,2.2,1.050*
2018-09-15 02:34:00,-3.062E-01,4C000000*,-703.4,964.597,91,20.2,45.0,0.406,738.4,2.2,1.050*
2018-09-15 02:35:00,-2.993E-01,4C000000*,-703.4,965.405,90,20.1,44.8,0.406,738.4,2.2,1.050*
2018-09-15 02:36:00,-3.249E-01,4C000000*,-703.0,964.192,89,20.0,44.6,0.406,738.4,2.2,1.050*
2018-09-15 02:37:00,-2.963E-01,4C000000*,-703.0,964.597,90,20.1,44.7,0.406,738.4,2.2,1.050*
2018-09-15 02:38:00,-3.160E-01,4C000000*,-703.0,963.384,90,20.0,44.8,0.406,738.4,2.2,1.050*
2018-09-15 02:39:00,-3.136E-01,4C000000*,-703.4,963.788,89,20.0,44.9,0.406,738.4,2.2,1.050*
2018-09-15 02:40:00,-2.782E-01,4C000000*,-703.4,965.001,90,20.0,44.9,0.406,738.4,2.2,1.050*
2018-09-15 02:41:00,-2.900E-01,4C000000*,-703.4,964.192,90,20.0,45.0,0.406,738.4,2.2,1.050*
2018-09-15 02:42:00,-3.142E-01,4C000000*,-703.0,962.979,91,19.9,44.8,0.406,738.4,2.2,1.050*
2018-09-15 02:43:00,-2.946E-01,4C000000*,-703.4,964.597,91,20.0,44.8,0.406,738.4,2.2,1.050*
2018-09-15 02:44:00,-2.903E-01,4C000000*,-703.4,963.788,89,20.0,44.9,0.406,738.4,2.2,1.050*
2018-09-15 02:45:00,-2.767E-01,4C000000*,-703.0,964.597,88,19.9,44.9,0.406,738.4,2.2,1.050*
2018-09-15 02:46:00,-3.613E-01,4C000000*,-703.4,964.192,89,19.9,45.0,0.406,738.4,2.2,1.050*
2018-09-15 02:47:00,-3.640E-01,4C000000*,-703.4,963.788,90,19.9,45.0,0.406,738.1,2.2,1.050*
2018-09-15 02:48:00,-2.474E-01,4C000000*,-703.0,964.597,89,19.8,44.8,0.406,738.4,2.2,1.050*
2018-09-15 02:49:00,-2.997E-01,4C000000*,-703.0,963.384,90,19.8,44.9,0.406,738.1,2.2,1.050*
2018-09-15 02:50:00,-2.727E-01,4C000000*,-703.0,964.192,90,19.9,45.0,0.406,738.4,2.2,1.050*
2018-09-15 02:51:00,-3.311E-01,4C000000*,-703.7,963.384,91,19.8,44.9,0.406,738.1,2.2,1.050*
2018-09-15 02:52:00,-3.086E-01,4C000000*,-703.4,963.788,89,19.9,44.8,0.406,738.4,2.2,1.050*
2018-09-15 02:53:00,-1.969E-01,4C000000*,-703.4,965.001,90,19.9,44.8,0.405,738.1,2.2,1.050*
2018-09-15 02:54:00,-2.204E-01,4C000000*,-703.0,963.788,91,19.9,44.8,0.406,738.1,2.2,1.050*
2018-09-15 02:55:00,-2.856E-01,4C000000*,-703.4,963.788,90,19.8,45.0,0.405,738.1,2.2,1.050*
2018-09-15 02:56:00,-3.007E-01,4C000000*,-703.0,963.788,90,19.8,45.1,0.406,738.4,2.2,1.050*
2018-09-15 02:57:00,-3.304E-01,4C000000*,-703.4,963.788,88,19.8,44.8,0.406,738.4,2.2,1.050*
2018-09-15 02:58:00,-2.033E-01,4C000000*,-703.4,963.788,90,19.8,44.8,0.406,738.1,2.2,1.050*
2018-09-15 02:59:00,-3.129E-01,4C000000*,-703.0,964.192,91,19.7,44.8,0.406,738.4,2.2,1.050*
2018-09-15 03:00:00,-3.392E-01,4C000000*,-703.4,964.597,89,19.8,44.9,0.405,738.4,2.2,1.050*
2018-09-15 03:01:00,-2.783E-01,4C000000*,-703.4,963.788,90,19.7,45.0,0.406,738.4,2.2,1.050*
2018-09-15 03:02:00,-2.478E-01,4C000000*,-703.0,962.979,90,19.8,45.0,0.406,738.1,2.2,1.050*
2018-09-15 03:03:00,-2.635E-01,4C000000*,-703.0,962.979,91,19.8,44.8,0.406,738.4,2.2,1.050*
2018-09-15 03:04:00,-3.393E-01,4C000000*,-703.0,963.788,90,19.6,44.8,0.406,738.4,2.2,1.050*
2018-09-15 03:05:00,-3.112E-01,4C000000*,-703.0,963.788,89,19.7,44.9,0.405,738.4,2.2,1.050*
2018-09-15 03:06:00,-2.623E-01,4C000000*,-703.0,964.192,90,19.7,45.0,0.406,738.4,2.2,1.050*
2018-09-15 03:07:00,-2.695E-01,4C000000*,-703.4,963.788,89,19.6,45.0,0.406,738.4,2.2,1.050*
2018-09-15 03:08:00,-2.657E-01,4C000000*,-703.4,964.192,91,19.5,44.8,0.406,738.1,2.2,1.050*
2018-09-15 03:09:00,-2.785E-01,4C000000*,-703.4,965.001,91,19.7,44.8,0.406,738.4,2.2,1.050*
2018-09-15 03:10:00,-2.561E-01,4C000000*,-703.0,964.597,90,19.6,44.9,0.406,738.4,2.2,1.050*
2018-09-15 03:11:00,-3.108E-01,4C000000*,-704.1,962.979,91,19.7,45.0,0.405,738.4,2.2,1.050*
2018-09-15 03:12:00,-2.868E-01,4C000000*,-703.4,964.597,89,19.7,44.9,0.406,738.1,2.2,1.050*
2018-09-15 03:13:00,-2.876E-01,4C000000*,-703.4,963.384,90,19.8,44.8,0.406,738.4,2.2,1.050*
2018-09-15 03:14:00,-3.267E-01,4C000000*,-703.0,962.575,90,19.7,44.8,0.406,738.1,2.2,1.050*
2018-09-15 03:15:00,-2.027E-01,4C000000*,-703.0,963.384,88,19.8,44.9,0.406,738.1,2.2,1.050*
2018-09-15 03:16:00,-2.680E-01,4C000000*,-703.4,963.384,91,19.7,45.0,0.406,738.4,2.2,1.050*
2018-09-15 03:17:00,-2.295E-01,4C000000*,-703.4,964.192,91,19.7,44.9,0.406,738.1,2.2,1.050*
2018-09-15 03:18:00,-2.474E-01,4C000000*,-703.4,963.788,91,19.6,44.7,0.406,738.4,2.2,1.050*
2018-09-15 03:19:00,-3.382E-01,4C000000*,-703.4,963.384,91,19.5,44.8,0.406,738.1,2.2,1.050*
2018-09-15 03:20:00,-3.282E-01,4C000000*,-703.0,965.001,88,19.5,44.8,0.406,738.4,2.2,1.050*
2018-09-15 03:21:00,-3.001E-01,4C000000*,-703.4,963.788,91,19.6,44.8,0.406,738.4,2.2,1.050*
2018-09-15 03:22:00,-2.528E-01,4C000000*,-703.0,963.384,90,19.5,45.0,0.406,738.1,2.2,1.050*
2018-09-15 03:23:00,-2.238E-01,4C000000*,-703.4,964.192,88,19.6,45.0,0.406,738.4,2.2,1.050*
2018-09-15 03:24:00,-3.138E-01,4C000000*,-703.4,963.788,89,19.6,44.7,0.406,738.1,2.2,1.050*
2018-09-15 03:25:00,-3.303E-01,4C000000*,-703.7,962.575,90,19.5,44.7,0.406,738.1,2.2,1.050*
2018-09-15 03:26:00,-2.610E-01,4C000000*,-703.4,963.788,90,19.5,44.7,0.405,738.4,2.2,1.050*
2018-09-15 03:27:00,-3.018E-01,4C000000*,-702.6,964.192,90,19.5,44.8,0.406,738.1,2.2,1.050*
2018-09-15 03:28:00,-3.372E-01,4C000000*,-702.6,964.192,91,19.5,44.9,0.406,738.1,2.2,1.050*
2018-09-15 03:29:00,-2.763E-01,4C000000*,-703.0,965.405,89,19.6,45.0,0.406,738.1,2.2,1.050*
2018-09-15 03:30:00,-2.352E-01,4C000000*,-703.0,963.384,90,19.5,45.0,0.406,738.1,2.2,1.050*
2018-09-15 03:31:00,-3.452E-01,4C000000*,-703.4,963.788,90,19.5,44.7,0.405,738.4,2.2,1.050*
2018-09-15 03:32:00,-1.893E-01,4C000000*,-703.7,963.384,91,19.5,44.7,0.405,738.1,2.2,1.050*
2018-09-15 03:33:00,-2.806E-01,4C000000*,-703.4,963.384,91,19.5,44.8,0.406,738.1,2.2,1.050*
2018-09-15 03:34:00,-2.298E-01,4C000000*,-703.0,963.788,90,19.5,44.9,0.405,738.4,2.2,1.050*
2018-09-15 03:35:00,-2.680E-01,4C000000*,-703.0,963.788,89,19.5,44.9,0.405,738.4,2.2,1.050*
2018-09-15 03:36:00,-2.411E-01,4C000000*,-703.4,964.192,91,19.5,45.0,0.406,738.1,2.2,1.050*
2018-09-15 03:37:00,-2.710E-01,4C000000*,-703.4,963.788,90,19.5,44.8,0.406,738.1,2.2,1.050*
2018-09-15 03:38:00,-3.313E-01,4C000000*,-703.4,962.979,90,19.4,44.8,0.405,738.4,2.2,1.050*
2018-09-15 03:39:00,-2.496E-01,4C000000*,-703.0,963.788,91,19.3,44.9,0.406,738.1,2.2,1.050*
2018-09-15 03:40:00,-3.220E-01,4C000000*,-703.4,963.788,90,19.4,44.9,0.405,738.1,2.2,1.050*
2018-09-15 03:41:00,-3.928E-01,4C000000*,-703.0,964.597,90,19.4,45.0,0.405,738.1,2.2,1.050*
2018-09-15 03:42:00,-1.823E-01,4C000000*,-703.4,964.192,90,19.4,45.0,0.405,738.1,2.2,1.050*
2018-09-15 03:43:00,-2.265E-01,4C000000*,-703.4,963.788,90,19.4,44.8,0.405,738.4,2.2,1.050*
2018-09-15 03:44:00,-2.296E-01,4C000000*,-703.0,965.809,91,19.4,44.8,0.406,738.4,2.2,1.050*
2018-09-15 03:45:00,-3.548E-01,4C000000*,-703.4,965.001,89,19.3,44.8,0.406,738.4,2.2,1.050*
2018-09-15 03:46:00,-3.413E-01,4C000000*,-703.4,963.384,89,19.3,44.9,0.406,738.1,2.2,1.050*
2018-09-15 03:47:00,-3.156E-01,4C000000*,-703.4,962.171,89,19.4,45.0,0.405,738.1,2.2,1.050*
2018-09-15 03:48:00,-3.246E-01,4C000000*,-703.0,962.575,90,19.5,45.0,0.405,738.1,2.2,1.050*
2018-09-15 03:49:00,-2.824E-01,4C000000*,-703.0,963.384,89,19.4,44.7,0.406,738.1,2.2,1.050*
2018-09-15 03:50:00,-2.532E-01,4C000000*,-703.4,963.788,89,19.4,44.8,0.406,738.1,2.2,1.050*
2018-09-15 03:51:00,-2.906E-01,4C000000*,-703.0,962.979,90,19.3,44.8,0.405,738.1,2.2,1.050*
2018-09-15 03:52:00,-2.449E-01,4C000000*,-703.4,962.575,90,19.4,44.9,0.406,738.1,2.2,1.050*
2018-09-15 03:53:00,-3.077E-01,4C000000*,-703.4,964.192,89,19.4,45.0,0.405,738.1,2.2,1.050*
2018-09-15 03:54:00,-2.518E-01,4C000000*,-703.4,963.384,91,19.4,45.1,0.406,738.1,2.2,1.050*
2018-09-15 03:55:00,-1.614E-01,4C000000*,-703.4,963.788,90,19.3,44.8,0.405,738.1,2.2,1.050*
2018-09-15 03:56:00,-2.241E-01,4C000000*,-703.4,963.788,90,19.3,44.7,0.406,738.1,2.2,1.050*
2018-09-15 03:57:00,-3.176E-01,4C000000*,-703.0,962.979,90,19.3,44.8,0.405,738.1,2.2,1.050*
2018-09-15 03:58:00,-3.260E-01,4C000000*,-703.0,963.384,90,19.3,44.8,0.405,738.1,2.2,1.050*
2018-09-15 03:59:00,-2.818E-01,4C000000*,-703.0,963.788,90,19.3,44.8,0.405,738.1,2.2,1.050*
2018-09-15 04:00:00,-3.566E-01,4C000000*,-703.0,962.979,89,19.3,44.9,0.406,738.4,2.2,1.050*
2018-09-15 04:01:00,-3.433E-01,4C000000*,-703.4,963.384,89,19.3,45.0,0.405,738.1,2.2,1.050*
2018-09-15 04:02:00,-2.093E-01,4C000000*,-703.4,962.575,91,19.3,45.0,0.405,738.1,2.2,1.050*
2018-09-15 04:03:00,-3.169E-01,4C000000*,-703.0,962.979,89,19.3,44.6,0.405,738.1,2.2,1.050*
2018-09-15 04:04:00,-3.385E-01,4C000000*,-703.4,964.192,91,19.4,44.7,0.405,738.1,2.2,1.050*
2018-09-15 04:05:00,-2.778E-01,4C000000*,-703.4,965.001,89,19.4,44.8,0.405,738.1,2.2,1.050*
2018-09-15 04:06:00,-3.291E-01,4C000000*,-703.0,962.979,88,19.4,44.8,0.405,738.1,2.2,1.050*
2018-09-15 04:07:00,-3.133E-01,4C000000*,-703.4,964.192,89,19.3,44.9,0.405,738.1,2.2,1.050*
2018-09-15 04:08:00,-2.397E-01,4C000000*,-703.0,964.192,90,19.4,45.0,0.405,738.1,2.2,1.050*
2018-09-15 04:09:00,-3.123E-01,4C000000*,-703.4,963.788,91,19.2,45.0,0.405,738.1,2.2,1.050*
2018-09-15 04:10:00,-2.762E-01,4C000000*,-703.7,963.788,91,19.2,44.8,0.406,738.1,2.2,1.050*
2018-09-15 04:11:00,-2.281E-01,4C000000*,-703.0,962.979,90,19.2,44.8,0.406,737.8,2.2,1.050*
2018-09-15 04:12:00,-2.937E-01,4C000000*,-703.4,964.192,90,19.3,44.8,0.405,738.1,2.2,1.050*
2018-09-15 04:13:00,-2.246E-01,4C000000*,-703.4,963.788,90,19.3,44.9,0.405,738.1,2.2,1.050*
2018-09-15 04:14:00,-3.458E-01,4C000000*,-703.4,965.405,90,19.2,45.0,0.405,738.1,2.2,1.050*
2018-09-15 04:15:00,-2.705E-01,4C000000*,-703.0,963.384,89,19.2,45.0,0.405,738.1,2.2,1.050*